AirNav   Everest Fuels
 
 432 users online  

MY72 Isle Private Airport
Isle, Minnesota, USA

GOING TO ISLE?


FAA INFORMATION EFFECTIVE 10 SEPTEMBER 2020

Location

FAA Identifier: MY72
Lat/Long: 46-09-34.8370N 093-27-40.8510W
46-09.580617N 093-27.680850W
46.1596769,-93.4613475
(estimated)
Elevation: 1271 ft. / 387 m (estimated)
Variation: 03E (1985)
From city: 2 miles NE of ISLE, MN
Time zone: UTC -5 (UTC -6 during Standard Time)
Zip code: 56342

Airport Operations

Airport use: Private use. Permission required prior to landing
Activation date: 07/1956
Control tower: no
ARTCC: MINNEAPOLIS CENTER
FSS: PRINCETON FLIGHT SERVICE STATION
Attendance: UNATNDD
Wind indicator: yes
Segmented circle: no

Airport Communications

CTAF: 122.9
WX AWOS-3 at JMR (18 nm SE): 123.925 (320-679-1629)

Nearby radio navigation aids

NDB name  Hdg/Dist  Freq  Var  ID
MORA334/18.032700WJMR .--- -- .-.
AITKIN159/24.939700EAIT .- .. -
MOOSE LAKE238/31.336202EMZH -- --.. ....
RUSH CITY321/35.028202EROS .-. --- ...
PRINCETON007/36.236803EPNM .--. -. --
RIPLEY080/37.040403EXCR -..- -.-. .-.
CAMBRIDGE346/37.135001ECBG -.-. -... --.
LITTLE FALLS068/38.735903ELXL .-.. -..- .-..

Airport Services

Parking: tiedowns
Airframe service: NONE
Powerplant service: NONE
Bottled oxygen: NONE
Bulk oxygen: NONE

Runway Information

Runway 16/34

Dimensions: 2460 x 160 ft. / 750 x 49 m
Surface: turf, in fair condition
RUNWAY 16  RUNWAY 34
Traffic pattern: leftleft
Markings: nonenone
Runway end identifier lights: nono
Obstructions: 50 ft. trees, 600 ft. from runway, 100 ft. right of centerline, 12:1 slope to clear65 ft. trees, 600 ft. from runway, 225 ft. left of centerline, 10:1 slope to clear

Airport Ownership and Management from official FAA records

Ownership: Publicly-owned
Owner: CITY OF ISLE MINNESOTA
P O BOX 427
ISLE, MN 56342
Phone 320-676-3641
Manager: ISLE FLYING CLUB INC.
32308 160TH ST
ISLE, MN 56342
Phone (320) 674-0065
ALSO: PATRICK MOENKHAUS 320-674-0065

Airport Operational Statistics

Aircraft based on the field: 4
Single engine airplanes: 4
    
Aircraft operations: avg 50/month *
83% local general aviation
17% transient general aviation
* for 12-month period ending 30 June 2016

Additional Remarks

FLYING CLUB MEMBERSHIP OR PERMISSION FROM A FLYING CLUB MEMBER IS REQUIRED TO LAND AT THE ISLE PRIVATE AIRPORT.
FOR CD CTC MINNEAPOLIS ARTCC AT 651-463-5588.

Instrument Procedures

There are no published instrument procedures at MY72.

Some nearby airports with instrument procedures:

KJMR - Mora Municipal Airport (18 nm SE)
04W - Field of Dreams Airport (25 nm E)
KAIT - Aitkin Municipal Airport-Steve Kurtz Field (25 nm N)
KHZX - Isedor Iverson Airport (28 nm N)
KMZH - Moose Lake Carlton County Airport (31 nm NE)
 
Loc | Ops | Rwys | IFR | FBO | Links
Com | Nav | Svcs | Stats | Notes
Area around MY72 (Isle Private Airport)
 
Road maps at: MapQuest Bing Google
 
Aerial photo
WARNING: Photo may not be current or correct
Aerial photo of MY72 (Isle Private Airport)
Photo by Dan Johnson
Photo taken 07-Nov-2018
looking northeast.

Do you have a better or more recent aerial photo of Isle Private Airport that you would like to share? If so, please send us your photo.

 
Sectional chart

 
Airport distance calculator
Flying to Isle Private Airport? Find the distance to fly.

From to MY72

Sunrise and sunset
Times for 27-Sep-2020
 Local
(UTC-5)
 Zulu
(UTC)
Morning civil twilight06:4011:40
Sunrise07:0912:09
Sunset19:0024:00
Evening civil twilight19:2900:29

Current date and time
Zulu (UTC)  27-Sep-2020 10:07:38
Local (UTC-5)  27-Sep-2020 05:07:38
 
METAR
KJMR 
18nm SE 
270955Z AUTO 23005KT 10SM CLR 11/11 A2960 RMK AO2
KAIT 
24nm N 
270955Z AUTO 23005KT 10SM CLR 10/08 A2953 RMK AO2
K04W 
25nm E 
270955Z AUTO 21004KT 3SM BR CLR 10/10 A2958 RMK AO2
KHZX 
28nm N 
270955Z AUTO 23005KT 10SM CLR 11/10 A2954 RMK AO2 P0001
KBRD 
31nm NW 
270953Z AUTO 26007KT 10SM CLR 11/09 A2957 RMK AO2 SLP013 T01110089
KMZH 
31nm NE 
270955Z AUTO 21004KT 10SM BKN100 10/10 A2954 RMK AO2
KROS 
35nm SE 
270955Z AUTO 22004KT 10SM SCT100 11/11 A2959 RMK AO2 T01110105
KCBG 
36nm S 
270955Z AUTO 20005KT 10SM CLR 13/08 A2961 RMK AO2
TAF
KBRD 
31nm NW 
270536Z 2706/2806 25006KT P6SM SCT045 BKN070 FM271600 27012G21KT P6SM VCSH BKN025 FM272100 29011G20KT P6SM VCSH BKN035 FM280100 31009KT P6SM BKN060
NOTAMs
Click for the latest NOTAMs
NOTAMs are issued by the DoD/FAA and will open in a separate window not controlled by AirNav.

 

 
 

Would you like to see your business listed on this page?

 If your business provides an interesting product or service to pilots, flight crews, aircraft, or users of the Isle Private Airport, you should consider listing it here.  To start the listing process, click on the button below
 
Add a business
 

Other Pages about Isle Private Airport

Update a link
 
Copyright © AirNav, LLC. All rights reserved. Privacy Policy  Contact